EXS1739 EGCC-LGSK

Flight info

Callsign EXS1739
Flight time N/A
Altitude 35000
Route SONEX UL975 DESIG L603 DOLAS DCT NAVPI DCT ALFEN DCT DOJOH DCT DODEN DCT NEGIX DCT DINKU DCT BESNI DCT LATLO DCT OBEDI DCT NAKUM DCT OLEZE DCT TEBLI DCT BOSNA DCT PODOB DCT MEDUX UM867 KOGAT DCT ERANA UL737 TSL
Aircraft A21N/M-SDE2E3FGHIJ1RWXY/LB1

Departure

Time N/A
Airport Manchester Airport (EGCC)

Arrival

Time 2026-05-01 11:20
Airport Skiathos Island National Airport (LGSK)
Time Latitude Longitude Altitude Speed Heading
2026-05-01 09:37 47.76340 12.68956 35807 ft 449 kts 129°
2026-05-01 09:37 47.71895 12.75501 36210 ft 450 kts 129°
2026-05-01 09:37 47.69668 12.78774 36383 ft 450 kts 129°
2026-05-01 09:38 47.65255 12.85359 36762 ft 449 kts 128°
2026-05-01 09:38 47.63073 12.88686 36981 ft 449 kts 128°
2026-05-01 09:38 47.60919 12.91965 37185 ft 449 kts 128°
2026-05-01 09:39 47.56542 12.98594 37435 ft 449 kts 129°
2026-05-01 09:39 47.52162 13.05192 37458 ft 449 kts 128°
2026-05-01 09:40 47.45588 13.15066 37524 ft 448 kts 128°
2026-05-01 09:40 47.43412 13.18326 37858 ft 443 kts 129°
2026-05-01 09:41 47.41260 13.21543 38220 ft 438 kts 129°
2026-05-01 09:41 47.36949 13.27993 38055 ft 445 kts 128°
2026-05-01 09:41 47.34771 13.31241 37807 ft 445 kts 129°
2026-05-01 09:42 47.32593 13.34483 37548 ft 445 kts 128°
2026-05-01 09:42 47.30408 13.37731 37408 ft 446 kts 128°
2026-05-01 09:43 47.21620 13.50758 37397 ft 450 kts 128°
2026-05-01 09:43 47.17202 13.57284 37401 ft 450 kts 128°
2026-05-01 09:44 47.10546 13.67087 37384 ft 451 kts 129°
2026-05-01 09:45 47.06106 13.73604 37412 ft 450 kts 128°
2026-05-01 09:45 46.99448 13.83343 37395 ft 451 kts 128°
2026-05-01 09:46 46.95034 13.89789 37412 ft 451 kts 128°
2026-05-01 09:46 46.90581 13.96269 37417 ft 452 kts 128°
2026-05-01 09:47 46.86126 14.02732 37455 ft 451 kts 128°
2026-05-01 09:47 46.81664 14.09195 37449 ft 451 kts 128°
2026-05-01 09:48 46.77201 14.15641 37452 ft 451 kts 128°
2026-05-01 09:48 46.72735 14.22074 37463 ft 452 kts 128°
2026-05-01 09:49 46.68294 14.28462 37470 ft 452 kts 128°
2026-05-01 09:49 46.63812 14.34886 37498 ft 452 kts 128°
2026-05-01 09:50 46.59329 14.41296 37473 ft 452 kts 128°
2026-05-01 09:50 46.54847 14.47693 37469 ft 452 kts 128°
2026-05-01 09:51 46.50352 14.54091 37449 ft 452 kts 128°
2026-05-01 09:51 46.45861 14.60470 37442 ft 452 kts 128°
2026-05-01 09:52 46.41365 14.66834 37440 ft 451 kts 128°
2026-05-01 09:52 46.36874 14.73178 37431 ft 451 kts 128°
2026-05-01 09:53 46.32412 14.79470 37426 ft 451 kts 128°
2026-05-01 09:53 46.27918 14.85793 37427 ft 451 kts 128°
2026-05-01 09:54 46.23412 14.92113 37425 ft 451 kts 128°
2026-05-01 09:54 46.18899 14.98427 37430 ft 452 kts 129°
2026-05-01 09:55 46.14367 15.04751 37423 ft 452 kts 129°
2026-05-01 09:55 46.09842 15.11053 37428 ft 452 kts 129°
2026-05-01 09:56 46.05327 15.17327 37429 ft 451 kts 129°
2026-05-01 09:56 46.00805 15.23591 37455 ft 450 kts 129°
2026-05-01 09:57 45.96287 15.29840 37438 ft 451 kts 129°
2026-05-01 09:57 45.91756 15.36094 37435 ft 453 kts 130°
2026-05-01 09:58 45.87230 15.42323 37436 ft 453 kts 130°
2026-05-01 09:58 45.82667 15.48584 37433 ft 455 kts 130°
2026-05-01 09:59 45.78870 15.53784 37434 ft 453 kts 130°
2026-05-01 09:59 45.74305 15.60020 37432 ft 453 kts 130°
2026-05-01 10:00 45.69742 15.66243 37424 ft 453 kts 130°
2026-05-01 10:00 45.65168 15.72468 37422 ft 453 kts 130°
2026-05-01 10:01 45.60596 15.78674 37421 ft 454 kts 130°
2026-05-01 10:01 45.56010 15.84883 37423 ft 454 kts 130°
2026-05-01 10:02 45.51453 15.91039 37426 ft 454 kts 130°
2026-05-01 10:02 45.46855 15.97232 37412 ft 454 kts 130°
2026-05-01 10:03 45.42254 16.03420 37418 ft 456 kts 130°
2026-05-01 10:03 45.37624 16.09630 37444 ft 458 kts 131°
2026-05-01 10:04 45.32973 16.15849 37427 ft 459 kts 131°
2026-05-01 10:04 45.28328 16.22050 37420 ft 459 kts 131°
2026-05-01 10:05 45.23668 16.28257 37419 ft 458 kts 131°
2026-05-01 10:05 45.19016 16.34439 37416 ft 458 kts 131°
2026-05-01 10:06 45.14380 16.40583 37428 ft 460 kts 132°
2026-05-01 10:06 45.09703 16.46767 37415 ft 460 kts 132°
2026-05-01 10:07 45.05017 16.52949 37416 ft 459 kts 132°
2026-05-01 10:07 45.00332 16.59116 37418 ft 460 kts 132°
2026-05-01 10:08 44.93330 16.68305 37428 ft 461 kts 133°
2026-05-01 10:09 44.88624 16.74466 37421 ft 462 kts 133°
2026-05-01 10:09 44.83910 16.80619 37402 ft 462 kts 133°
2026-05-01 10:10 44.79183 16.86776 37413 ft 462 kts 133°
2026-05-01 10:10 44.72085 16.95992 37416 ft 463 kts 133°
2026-05-01 10:11 44.67375 17.02093 37406 ft 465 kts 133°
2026-05-01 10:11 44.62614 17.08245 37404 ft 465 kts 133°
2026-05-01 10:12 44.57850 17.14383 37401 ft 465 kts 133°
2026-05-01 10:13 44.50692 17.23577 37400 ft 465 kts 134°
2026-05-01 10:13 44.45916 17.29702 37399 ft 466 kts 134°
2026-05-01 10:14 44.38733 17.38878 37391 ft 466 kts 134°
2026-05-01 10:14 44.33935 17.44989 37396 ft 467 kts 134°
2026-05-01 10:15 44.29153 17.51066 37380 ft 467 kts 134°
2026-05-01 10:15 44.24340 17.57171 37370 ft 467 kts 134°
2026-05-01 10:16 44.19526 17.63259 37364 ft 468 kts 135°
2026-05-01 10:17 44.12280 17.72399 37369 ft 471 kts 134°
2026-05-01 10:17 44.04986 17.81571 37353 ft 471 kts 135°
2026-05-01 10:18 43.97693 17.90708 37346 ft 470 kts 135°
2026-05-01 10:19 43.92851 17.96756 37338 ft 472 kts 135°
2026-05-01 10:19 43.87939 18.02880 37329 ft 473 kts 135°
2026-05-01 10:20 43.80582 18.12018 37321 ft 473 kts 136°
2026-05-01 10:20 43.75675 18.18098 37324 ft 473 kts 136°
2026-05-01 10:21 43.68264 18.27256 37312 ft 477 kts 135°
2026-05-01 10:22 43.60887 18.36339 37309 ft 472 kts 136°
2026-05-01 10:23 43.53499 18.45409 37299 ft 474 kts 136°
2026-05-01 10:23 43.46048 18.54521 37278 ft 481 kts 137°
2026-05-01 10:24 43.36067 18.66673 37283 ft 474 kts 137°
2026-05-01 10:25 43.26063 18.78806 37289 ft 485 kts 137°
2026-05-01 10:26 43.21052 18.84862 37287 ft 481 kts 137°
2026-05-01 10:27 43.11001 18.96964 37259 ft 479 kts 137°
2026-05-01 10:28 43.03449 19.06021 37261 ft 486 kts 137°
2026-05-01 10:28 42.95864 19.15086 37252 ft 486 kts 139°
2026-05-01 10:29 42.88285 19.24116 37241 ft 483 kts 139°
2026-05-01 10:30 42.78115 19.36182 37237 ft 488 kts 139°
2026-05-01 10:31 42.67968 19.48170 37240 ft 479 kts 140°
2026-05-01 10:32 42.60359 19.57128 37237 ft 483 kts 140°
2026-05-01 10:33 42.50126 19.69120 37219 ft 485 kts 140°
2026-05-01 10:34 42.42504 19.78021 37228 ft 483 kts 140°
2026-05-01 10:34 42.37407 19.83958 37229 ft 482 kts 140°
2026-05-01 10:35 42.29806 19.92776 37221 ft 481 kts 140°
2026-05-01 10:35 42.24706 19.98674 37224 ft 483 kts 141°
2026-05-01 10:36 42.16998 20.07571 37225 ft 488 kts 141°
2026-05-01 10:37 42.11841 20.13507 37229 ft 488 kts 141°
2026-05-01 10:37 42.04174 20.22314 37224 ft 484 kts 141°
2026-05-01 10:38 41.99040 20.28197 37209 ft 484 kts 141°
2026-05-01 10:38 41.93897 20.34081 37221 ft 484 kts 141°
2026-05-01 10:39 41.88757 20.39946 37212 ft 484 kts 141°
2026-05-01 10:39 41.83623 20.45780 37211 ft 484 kts 141°
2026-05-01 10:40 41.78529 20.51685 37212 ft 484 kts 136°
2026-05-01 10:40 41.76402 20.55127 37209 ft 489 kts 124°
2026-05-01 10:40 41.74779 20.59139 37220 ft 489 kts 115°
2026-05-01 10:41 41.71973 20.67469 37233 ft 491 kts 114°
2026-05-01 10:42 41.67702 20.79910 37242 ft 490 kts 115°
2026-05-01 10:42 41.64822 20.88179 37229 ft 491 kts 115°
2026-05-01 10:43 41.61922 20.96478 37245 ft 491 kts 115°
2026-05-01 10:43 41.59029 21.04740 37242 ft 491 kts 115°
2026-05-01 10:44 41.56131 21.12999 37241 ft 491 kts 115°
2026-05-01 10:44 41.53215 21.21271 37246 ft 492 kts 116°
2026-05-01 10:45 41.50294 21.29534 37250 ft 491 kts 116°
2026-05-01 10:45 41.47391 21.37722 37247 ft 491 kts 116°
2026-05-01 10:46 41.44464 21.45967 37250 ft 491 kts 116°
2026-05-01 10:46 41.41528 21.54207 37252 ft 491 kts 116°
2026-05-01 10:47 41.38588 21.62430 37252 ft 491 kts 116°
2026-05-01 10:47 41.36393 21.68555 37250 ft 491 kts 116°
2026-05-01 10:48 41.33169 21.76551 37240 ft 489 kts 130°
2026-05-01 10:48 41.30780 21.79754 37241 ft 488 kts 143°
2026-05-01 10:48 41.28125 21.82573 37246 ft 487 kts 145°
2026-05-01 10:49 41.22862 21.88078 37237 ft 475 kts 144°
2026-05-01 10:49 41.17676 21.93619 37256 ft 482 kts 144°
2026-05-01 10:50 41.12427 21.99242 37258 ft 486 kts 144°
2026-05-01 10:50 41.07161 22.04874 37249 ft 485 kts 144°
2026-05-01 10:51 41.01925 22.10464 37242 ft 487 kts 144°
2026-05-01 10:51 40.96651 22.16089 37218 ft 483 kts 144°
2026-05-01 10:51 40.94035 22.18869 36878 ft 483 kts 144°
2026-05-01 10:52 40.91414 22.21651 36602 ft 484 kts 144°
2026-05-01 10:52 40.88784 22.24441 36325 ft 483 kts 144°
2026-05-01 10:52 40.86172 22.27212 35896 ft 480 kts 145°
2026-05-01 10:52 40.83580 22.29960 35413 ft 477 kts 145°
2026-05-01 10:53 40.80995 22.32692 34900 ft 475 kts 145°
2026-05-01 10:53 40.78410 22.35424 34359 ft 474 kts 146°
2026-05-01 10:53 40.75836 22.38143 33795 ft 472 kts 146°
2026-05-01 10:53 40.73282 22.40842 33267 ft 469 kts 146°
2026-05-01 10:54 40.70775 22.43483 32774 ft 465 kts 146°
2026-05-01 10:54 40.68255 22.46138 32275 ft 462 kts 146°
2026-05-01 10:54 40.65751 22.48769 31763 ft 459 kts 146°
2026-05-01 10:54 40.63260 22.51382 31271 ft 456 kts 146°
2026-05-01 10:55 40.60783 22.53977 30812 ft 453 kts 146°
2026-05-01 10:55 40.58329 22.56550 30366 ft 449 kts 146°
2026-05-01 10:55 40.55900 22.59096 29797 ft 444 kts 146°
2026-05-01 10:55 40.53498 22.61614 29249 ft 439 kts 145°
2026-05-01 10:56 40.51124 22.64103 28733 ft 433 kts 145°
2026-05-01 10:56 40.48813 22.66517 28278 ft 426 kts 145°
2026-05-01 10:56 40.46510 22.68922 27822 ft 420 kts 145°
2026-05-01 10:56 40.44239 22.71293 27360 ft 414 kts 145°
2026-05-01 10:57 40.41991 22.73635 26882 ft 408 kts 145°
2026-05-01 10:57 40.39794 22.75925 26448 ft 399 kts 145°
2026-05-01 10:57 40.37983 22.77809 26126 ft 394 kts 145°
2026-05-01 10:57 40.35845 22.80023 25737 ft 390 kts 145°
2026-05-01 10:58 40.33722 22.82220 25329 ft 386 kts 145°
2026-05-01 10:58 40.31627 22.84390 24881 ft 383 kts 145°
2026-05-01 10:58 40.29542 22.86551 24430 ft 381 kts 144°
2026-05-01 10:58 40.27464 22.88701 23977 ft 381 kts 145°
2026-05-01 10:59 40.25384 22.90853 23498 ft 380 kts 145°
2026-05-01 10:59 40.23305 22.92975 22993 ft 377 kts 148°
2026-05-01 10:59 40.21104 22.94725 22291 ft 376 kts 155°
2026-05-01 10:59 40.18788 22.96332 21643 ft 377 kts 156°
2026-05-01 11:00 40.16472 22.97927 21175 ft 374 kts 155°
2026-05-01 11:00 40.14187 22.99519 20687 ft 371 kts 155°
2026-05-01 11:00 40.11901 23.01119 20042 ft 373 kts 155°
2026-05-01 11:00 40.09629 23.02722 19568 ft 367 kts 154°
2026-05-01 11:01 40.07413 23.04286 19177 ft 357 kts 154°
2026-05-01 11:01 40.05258 23.05812 18830 ft 348 kts 154°
2026-05-01 11:01 40.03140 23.07306 18506 ft 345 kts 155°
2026-05-01 11:01 40.01035 23.08789 18142 ft 343 kts 155°
2026-05-01 11:02 39.98936 23.10267 17782 ft 342 kts 155°
2026-05-01 11:02 39.96840 23.11739 17425 ft 341 kts 155°
2026-05-01 11:02 39.94761 23.13202 17079 ft 339 kts 155°
2026-05-01 11:02 39.92690 23.14656 16763 ft 337 kts 155°
2026-05-01 11:03 39.90629 23.16103 16439 ft 336 kts 155°
2026-05-01 11:03 39.88578 23.17543 16116 ft 334 kts 154°
2026-05-01 11:03 39.86536 23.18976 15798 ft 333 kts 154°
2026-05-01 11:03 39.84501 23.20402 15478 ft 331 kts 154°
2026-05-01 11:04 39.82476 23.21821 15175 ft 330 kts 154°
2026-05-01 11:04 39.80461 23.23236 14869 ft 329 kts 154°
2026-05-01 11:04 39.78446 23.24648 14546 ft 328 kts 155°
2026-05-01 11:04 39.76468 23.26031 14239 ft 327 kts 155°
2026-05-01 11:05 39.74468 23.27428 13913 ft 326 kts 154°
2026-05-01 11:05 39.72469 23.28825 13576 ft 325 kts 154°
2026-05-01 11:05 39.70476 23.30214 13251 ft 324 kts 154°
2026-05-01 11:05 39.68497 23.31593 12953 ft 322 kts 154°
2026-05-01 11:06 39.66532 23.32962 12663 ft 319 kts 154°
2026-05-01 11:06 39.64583 23.34318 12368 ft 317 kts 154°
2026-05-01 11:06 39.62646 23.35667 12061 ft 315 kts 154°
2026-05-01 11:07 39.58792 23.38349 11445 ft 313 kts 154°
2026-05-01 11:07 39.56873 23.39682 11140 ft 312 kts 155°
2026-05-01 11:07 39.54961 23.41008 10841 ft 311 kts 155°
2026-05-01 11:07 39.53055 23.42331 10551 ft 310 kts 155°
2026-05-01 11:08 39.51179 23.43634 10330 ft 303 kts 155°
2026-05-01 11:08 39.49338 23.44912 10139 ft 298 kts 155°
2026-05-01 11:08 39.45737 23.47405 9571 ft 294 kts 155°
2026-05-01 11:09 39.43941 23.48647 9281 ft 292 kts 155°
2026-05-01 11:09 39.42144 23.49883 8979 ft 291 kts 156°
2026-05-01 11:09 39.40302 23.50939 8685 ft 288 kts 161°
2026-05-01 11:10 39.36563 23.52718 8105 ft 285 kts 160°
2026-05-01 11:10 39.34701 23.53603 7827 ft 284 kts 159°
2026-05-01 11:10 39.32849 23.54491 7555 ft 283 kts 159°
2026-05-01 11:10 39.31007 23.55376 7267 ft 283 kts 158°
2026-05-01 11:11 39.29164 23.56263 6976 ft 282 kts 157°
2026-05-01 11:11 39.27322 23.57148 6682 ft 282 kts 156°
2026-05-01 11:11 39.25505 23.58021 6379 ft 282 kts 155°
2026-05-01 11:11 39.23670 23.58904 6076 ft 281 kts 156°
2026-05-01 11:12 39.21848 23.59779 5772 ft 277 kts 156°
2026-05-01 11:12 39.20054 23.60635 5485 ft 274 kts 158°
2026-05-01 11:12 39.18175 23.61110 5195 ft 279 kts 178°
2026-05-01 11:12 39.16295 23.60600 4897 ft 278 kts 200°
2026-05-01 11:13 39.14564 23.59491 4623 ft 276 kts 206°
2026-05-01 11:13 39.12912 23.58347 4557 ft 262 kts 206°
2026-05-01 11:13 39.11349 23.57280 4466 ft 250 kts 205°
2026-05-01 11:13 39.09805 23.56245 4118 ft 249 kts 205°
2026-05-01 11:14 39.08296 23.55247 3902 ft 239 kts 205°
2026-05-01 11:14 39.06854 23.54299 3739 ft 227 kts 205°
2026-05-01 11:14 39.05462 23.53388 3608 ft 225 kts 205°
2026-05-01 11:14 39.04073 23.52481 3459 ft 224 kts 205°
2026-05-01 11:15 39.02658 23.51554 2897 ft 232 kts 207°
2026-05-01 11:15 39.01491 23.50136 2424 ft 231 kts 246°
2026-05-01 11:15 39.01266 23.48278 2238 ft 200 kts 287°
2026-05-01 11:15 39.01950 23.46938 2108 ft 162 kts 334°
2026-05-01 11:16 39.02902 23.46732 2003 ft 125 kts
2026-05-01 11:16 39.03757 23.46459 1886 ft 126 kts 357°
2026-05-01 11:16 39.04606 23.46580 1760 ft 124 kts 18°
2026-05-01 11:16 39.05443 23.46822 1616 ft 123 kts 15°
2026-05-01 11:17 39.06278 23.47048 1570 ft 124 kts 15°
2026-05-01 11:17 39.07112 23.47274 1578 ft 125 kts 15°
2026-05-01 11:17 39.07966 23.47425 1583 ft 124 kts
2026-05-01 11:17 39.08822 23.47234 1551 ft 125 kts 355°
2026-05-01 11:18 39.09680 23.47003 1423 ft 126 kts 359°
2026-05-01 11:18 39.10542 23.47025 1270 ft 122 kts 17°
2026-05-01 11:18 39.11338 23.47363 1068 ft 120 kts 24°
2026-05-01 11:18 39.12112 23.47783 918 ft 121 kts 26°
2026-05-01 11:19 39.12878 23.48189 888 ft 117 kts 21°
2026-05-01 11:19 39.13644 23.48511 792 ft 116 kts 22°
2026-05-01 11:19 39.14398 23.48879 649 ft 116 kts 24°
2026-05-01 11:19 39.15151 23.49218 431 ft 117 kts 22°
2026-05-01 11:20 39.15923 23.49573 275 ft 119 kts 20°
2026-05-01 11:20 39.16698 23.49911 108 ft 116 kts 22°
2026-05-01 11:20 39.17435 23.50242 43 ft 104 kts 20°
2026-05-01 11:20 39.17771 23.50394 43 ft 33 kts 18°
2026-05-01 11:21 39.17899 23.50449 46 ft 8 kts 17°
2026-05-01 11:21 39.17920 23.50454 47 ft 4 kts 348°
2026-05-01 11:21 39.17931 23.50410 47 ft 7 kts 259°
2026-05-01 11:21 39.17927 23.50345 45 ft 8 kts 285°
2026-05-01 11:22 39.17946 23.50268 45 ft 4 kts 289°
2026-05-01 11:22 39.17948 23.50260 45 ft 0 kts 289°